Location: Sternwarte ZA, Rosenfeld-Brittheim
(48.2889°N, 8.6789°E)
Time: 07:14:27
(UTC+02:00)

ISS - Pass Details

Date: 19 May 2021
Orbit: 417 x 422 km, 51.6° (Epoch: 18 June)

Event Time Altitude Azimuth Distance (km) Brightness Sun altitude
Rises 02:05:40 0° 292° (WNW) 2,373 0.2 -21.2°
Reaches altitude 10° 02:07:46 10° 291° (WNW) 1,507 -0.9 -21.2°
Enters shadow 02:08:58 20° 289° (WNW) 1,028 -1.8 -21.1°
